Flag for France Weather past 2 weeks in Paris, France

Now
55 °F

Clear.


Feels Like: 52 °F
Forecast: 40 / 56 °F
Wind: 14 mph from Northwest

Location: Villacoublay

Current Time: Apr 27, 2015 at 5:44:51 PM

Latest Report: Apr 27, 2015 at 5:00 PM


Visibility: N/A

Pressure: 29.80 "Hg

Humidity: 44%

Dew point: 34 °F

Location of ParisLocation

Historic Weather in Paris — Graph

°F

Paris temperature yesterday

Maximum temperature yesterday: 57 °F (at 11:30 AM)
Minimum temperature yesterday: 50 °F (at 3:30 AM)
Average temperature yesterday: 54 °F

Past Weeks' High & Low Weather Summary

 TemperatureHumidityPressure
High79 °F (Apr 15, 5:00 PM)100% (Apr 25, 4:30 AM)30.51 "Hg (Apr 25, 4:30 AM)
Low45 °F (Apr 19, 7:00 AM)20% (Apr 20, 6:00 PM)29.62 "Hg (Apr 26, 7:30 PM)
Average59 °F58%30.08 "Hg
* Reported Apr 12 4:00 PM — Apr 27 4:00 PM, Paris, Weather by CustomWeather, © 2015

Note: Actual official high and low records may vary slightly from our data, if they occured in-between our weather recording intervals... More about our weather records

Advertising

Paris weather history for previous 24 hours

 ConditionsComfort  
Time TempWeatherWind HumidityBarometerVisibility
4:00 PM
Mon, Apr 27
55 °FScattered clouds.12 mph47%29.77 "HgN/A
3:30 PM55 °FScattered clouds.12 mph47%29.77 "HgN/A
3:00 PM54 °FPassing clouds.15 mph47%29.77 "HgN/A
2:30 PM54 °FClear.16 mph47%29.77 "HgN/A
2:00 PM54 °FClear.15 mph51%29.77 "HgN/A
1:30 PM54 °FPassing clouds.14 mph54%29.77 "HgN/A
1:00 PM52 °FClear.15 mph58%29.77 "HgN/A
12:30 PM52 °FScattered clouds.14 mph58%29.77 "HgN/A
12:00 PM50 °FPartly sunny.14 mph62%29.74 "HgN/A
11:30 AM50 °FPartly sunny.12 mph71%29.74 "HgN/A
11:00 AM48 °FPartly sunny.14 mph76%29.74 "HgN/A
10:30 AM48 °FPartly sunny.15 mph76%29.71 "HgN/A
10:00 AM46 °FMostly cloudy.13 mph82%29.71 "HgN/A
9:30 AM46 °FMostly cloudy.13 mph87%29.71 "HgN/A
9:00 AM46 °FMostly cloudy.12 mph93%29.71 "Hg4 mi
8:30 AM46 °FFog.12 mph93%29.68 "Hg3 mi
8:00 AM46 °FFog.10 mph93%29.68 "Hg3 mi
7:30 AM48 °FFog.12 mph94%29.68 "Hg2 mi
7:00 AM48 °FFog.12 mph94%29.65 "Hg2 mi
6:30 AM48 °FFog.12 mph94%29.65 "Hg2 mi
6:00 AM48 °FDrizzle. Fog.12 mph94%29.65 "Hg2 mi
5:30 AM48 °FDrizzle. Fog.10 mph100%29.65 "Hg3 mi
5:00 AM50 °FFog.10 mph94%29.65 "Hg1 mi
4:30 AM50 °FMostly cloudy.12 mph100%29.65 "Hg4 mi
4:00 AM52 °FMostly cloudy.8 mph94%29.62 "Hg4 mi
3:30 AM52 °FMostly cloudy.8 mph94%29.65 "Hg4 mi
3:00 AM52 °FMostly cloudy.7 mph94%29.65 "HgN/A
2:30 AM52 °FMostly cloudy.8 mph94%29.65 "HgN/A
2:00 AM52 °FMostly cloudy.7 mph100%29.65 "HgN/A
1:30 AM52 °FMostly cloudy.7 mph100%29.65 "Hg6 mi
1:00 AM54 °FMostly cloudy.6 mph94%29.65 "HgN/A
12:30 AM54 °FPartly cloudy.7 mph94%29.65 "HgN/A
12:00 AM54 °FPassing clouds.6 mph94%29.65 "HgN/A
11:30 PM
Sun, Apr 26
54 °FPassing clouds.5 mph94%29.65 "HgN/A
11:00 PM54 °FPartly cloudy.8 mph88%29.65 "HgN/A
10:30 PM54 °FPartly cloudy.7 mph88%29.65 "HgN/A
10:00 PM54 °FPartly cloudy.6 mph94%29.65 "HgN/A
9:30 PM54 °FBroken clouds.6 mph94%29.65 "HgN/A
9:00 PM54 °FBroken clouds.6 mph94%29.65 "HgN/A
8:30 PM54 °FPartly sunny.6 mph94%29.65 "HgN/A
8:00 PM54 °FMostly cloudy.6 mph94%29.65 "HgN/A
7:30 PM54 °FPartly sunny.7 mph94%29.62 "HgN/A
7:00 PM55 °FMostly cloudy.8 mph88%29.65 "HgN/A
6:30 PM55 °FLight rain. Broken clouds.8 mph94%29.65 "HgN/A
6:00 PM54 °FLight rain. Partly sunny.8 mph100%29.65 "HgN/A
5:30 PM55 °FLight rain. Broken clouds.7 mph94%29.65 "HgN/A
5:00 PM55 °FLight rain. Broken clouds.7 mph94%29.65 "Hg5 mi
Weather by CustomWeather, © 2015

See weather overviewHow to use our weather pages